Location: Mapua
(41.2500°S, 173.1000°E)
Time: 04:14:12
(UTC+12:00)

ISS - Pass Details

Date: 01 April 2019
Orbit: 408 x 410 km, 51.6° (Epoch: 24 April)

Event Time Altitude Azimuth Distance (km) Brightness Sun altitude
Exits shadow 05:37:03 38° 129° (SE) 658 -2.4 -24.1°
Drops below altitude 10° 05:39:16 10° 126° (SE) 1,508 0.0 -23.7°
Sets 05:41:23 0° 126° (SE) 2,377 1.3 -23.3°
